Location: ??????
(56.0120°N, 39.1740°E)
Time: 16:58:24
(UTC+00:00)

Cosmos 372 Rocket - Pass Details

Date: 14 April 2026
Orbit: 733 x 762 km, 74.1° (Epoch: 16 May)

Event Time Altitude Azimuth Distance (km) Brightness Sun altitude
Rises 17:02:56 0° 212° (SSW) 3,214 7.3 -5.4°
Reaches altitude 10° 17:05:18 10° 214° (SW) 2,294 6.6 -5.7°
Maximum altitude 17:10:31 75° 300° (WNW) 794 4.3 -6.3°
Drops below altitude 10° 17:15:46 10° 27° (NNE) 2,307 6.5 -6.9°
Sets 17:18:09 0° 29° (NNE) 3,235 7.3 -7.2°
